Ocala, FL

12:01 AM EST on February 25, 2018 (GMT -0500)
Ocala Regional-Taylor

Weather History for KOCF - January, 2013

Change the Weather History Date:

Monday, January 21, 2013

  Actual Average Record
Temperature  
Mean Temperature 61 °F -  
Max Temperature 71 °F 66 °F 82 °F (2017)
Min Temperature 51 °F 41 °F 24 °F (2009)
Degree Days  
Heating Degree Days 4    
Growing Degree Days 11 (Base 50)    
Moisture  
Dew Point 46 °F    
Average Humidity 65    
Maximum Humidity 88    
Minimum Humidity 43    
Precipitation  
Precipitation 0.00 in - - ()
Sea Level Pressure  
Sea Level Pressure 30.09 in    
Wind  
Wind Speed 2 mph (NNW)    
Max Wind Speed 9 mph    
Max Gust Speed -    
Visibility 10 miles    
Events      
Averages and records for this station are not official NWS values.
T = Trace of Precipitation, MM = Missing Value Source: NWS Daily Summary

Daily Weather History Graph

Daily Weather History Graph

Search for Another Location

Airport or City:

Trip Planner

Search our weather history database for the weather conditions in past years. The results will help you decide how hot, cold, wet, or windy it might be!

Date:

Astronomy

Jan. 21, 2013 Rise Set
Actual Time 7:22 AM EST 5:58 PM EST
Civil Twilight 6:57 AM EST 6:23 PM EST
Nautical Twilight 6:28 AM EST 6:52 PM EST
Astronomical Twilight 5:59 AM EST 7:20 PM EST
Moon 1:39 PM EST (1/21) 2:48 AM EST (1/21)
Length of Visible Light 11h 26m
Length of Day
10h 35m
Waxing Gibbous, 75% of the Moon is Illuminated
Jan 21
Waxing Gibbous
Jan 26
Full
Feb 3
Last Quarter
Feb 10
New
Feb 17
First Quarter

Hourly Weather History & Observations

Time (EST) Temp. Dew Point Humidity Pressure Visibility Wind Dir Wind Speed Gust Speed Precip Events Conditions
12:15 AM 51.8 °F 44.6 °F 76% 30.12 in 10.0 mi Calm Calm - N/A   Scattered Clouds
12:35 AM 53.6 °F 44.6 °F 72% 30.11 in 10.0 mi Calm Calm - N/A   Overcast
12:55 AM 53.6 °F 44.6 °F 72% 30.12 in 10.0 mi Calm Calm - N/A   Overcast
1:15 AM 53.6 °F 44.6 °F 72% 30.11 in 10.0 mi Calm Calm - N/A   Overcast
1:35 AM 53.6 °F 44.6 °F 72% 30.11 in 10.0 mi North 3.5 mph - N/A   Overcast
1:55 AM 53.6 °F 44.6 °F 72% 30.10 in 10.0 mi Calm Calm - N/A   Mostly Cloudy
2:15 AM 51.8 °F 44.6 °F 76% 30.09 in 10.0 mi Calm Calm - N/A   Mostly Cloudy
2:35 AM 51.8 °F 44.6 °F 76% 30.10 in 10.0 mi Calm Calm - N/A   Mostly Cloudy
2:55 AM 53.6 °F 44.6 °F 72% 30.10 in 10.0 mi Calm Calm - N/A   Overcast
3:15 AM 53.6 °F 44.6 °F 72% 30.09 in 10.0 mi Calm Calm - N/A   Mostly Cloudy
3:35 AM 53.6 °F 44.6 °F 72% 30.08 in 10.0 mi Calm Calm - N/A   Overcast
3:55 AM 53.6 °F 44.6 °F 72% 30.08 in 10.0 mi Calm Calm - N/A   Overcast
4:15 AM 53.6 °F 44.6 °F 72% 30.08 in 10.0 mi Calm Calm - N/A   Overcast
4:35 AM 53.6 °F 44.6 °F 72% 30.08 in 10.0 mi Calm Calm - N/A   Mostly Cloudy
4:55 AM 53.6 °F 44.6 °F 72% 30.07 in 10.0 mi North 4.6 mph - N/A   Mostly Cloudy
5:15 AM 53.6 °F 44.6 °F 72% 30.07 in 10.0 mi NNE 4.6 mph - N/A   Overcast
5:55 AM 53.6 °F 46.4 °F 77% 30.08 in 10.0 mi Calm Calm - N/A   Overcast
6:15 AM 53.6 °F 46.4 °F 77% 30.08 in 10.0 mi Calm Calm - N/A   Overcast
6:35 AM 55.4 °F 44.6 °F 67% 30.08 in 10.0 mi Calm Calm - N/A   Overcast
6:50 AM 53.6 °F 50.0 °F 88% 30.09 in 10.0 mi NNE 3.5 mph - N/A   Mostly Cloudy
7:50 AM 53.6 °F 50.0 °F 88% 30.10 in 10.0 mi Calm Calm - N/A   Mostly Cloudy
8:50 AM 57.2 °F 51.8 °F 82% 30.12 in 10.0 mi North 5.8 mph - N/A   Mostly Cloudy
9:50 AM 62.6 °F 51.8 °F 68% 30.13 in 10.0 mi North 4.6 mph - N/A   Overcast
10:50 AM 66.2 °F 51.8 °F 60% 30.14 in 10.0 mi North 6.9 mph - N/A   Overcast
11:50 AM 69.8 °F 50.0 °F 49% 30.11 in 10.0 mi NNE 3.5 mph - N/A   Overcast
12:50 PM 71.6 °F 48.2 °F 43% 30.07 in 10.0 mi NNE 5.8 mph - N/A   Scattered Clouds
1:50 PM 71.6 °F 48.2 °F 43% 30.05 in 10.0 mi NNW 6.9 mph - N/A   Scattered Clouds
2:50 PM 71.6 °F 48.2 °F 43% 30.04 in 10.0 mi NW 4.6 mph - N/A   Partly Cloudy
3:50 PM 71.6 °F 48.2 °F 43% 30.05 in 10.0 mi North 6.9 mph - N/A   Scattered Clouds
4:50 PM 69.8 °F 46.4 °F 43% 30.05 in 10.0 mi NNW 9.2 mph - N/A   Scattered Clouds
5:50 PM 66.2 °F 44.6 °F 46% 30.05 in 10.0 mi NNW 3.5 mph - N/A   Clear
6:50 PM 62.6 °F 44.6 °F 52% 30.06 in 10.0 mi NW 4.6 mph - N/A   Clear
7:55 PM 60.8 °F 44.6 °F 55% 30.07 in 10.0 mi Calm Calm - N/A   Clear
8:15 PM 59.0 °F 44.6 °F 59% 30.08 in 10.0 mi NNW 4.6 mph - N/A   Clear
8:35 PM 59.0 °F 44.6 °F 59% 30.08 in 10.0 mi NNW 3.5 mph - N/A   Clear
8:55 PM 59.0 °F 44.6 °F 59% 30.09 in 10.0 mi North 4.6 mph - N/A   Clear
9:15 PM 59.0 °F 44.6 °F 59% 30.10 in 10.0 mi NNW 4.6 mph - N/A   Clear
9:35 PM 59.0 °F 44.6 °F 59% 30.10 in 10.0 mi NNW 6.9 mph - N/A   Clear
9:55 PM 59.0 °F 42.8 °F 55% 30.11 in 10.0 mi NW 4.6 mph - N/A   Clear
10:15 PM 57.2 °F 42.8 °F 59% 30.11 in 10.0 mi NW 3.5 mph - N/A   Clear
10:35 PM 55.4 °F 42.8 °F 63% 30.12 in 10.0 mi NNW 3.5 mph - N/A   Clear
10:55 PM 53.6 °F 42.8 °F 67% 30.11 in 10.0 mi NNW 5.8 mph - N/A   Clear
11:15 PM 55.4 °F 42.8 °F 63% 30.11 in 10.0 mi NNW 5.8 mph - N/A   Clear
11:35 PM 53.6 °F 41.0 °F 62% 30.12 in 10.0 mi NNW 3.5 mph - N/A   Clear
11:55 PM 53.6 °F 41.0 °F 62% 30.12 in 10.0 mi NNW 3.5 mph - N/A   Clear